| time (UTC) | temp F | wind direction | speed knots | gust knots | rain 1hr in | rain 24hr in | rain mn in | humidity % | barometer mb |
| 20260506051118 | 64 | 359 | 3.5 | 5.2 | 0.00 | 0.00 | 0.00 | ||
| 20260506050618 | 63 | 345 | 3.5 | 2.6 | 0.00 | 0.00 | 0.00 | ||
| 20260506050119 | 64 | 359 | 6.1 | 6.1 | 0.00 | 0.00 | 0.00 | ||
| 20260506045119 | 64 | 4 | 2.6 | 3.5 | 0.00 | 0.00 | 0.00 | ||
| 20260506044618 | 65 | 4 | 4.3 | 3.5 | 0.00 | 0.00 | 0.00 | ||
| 20260506044118 | 64 | 339 | 1.7 | 4.3 | 0.00 | 0.00 | 0.00 | ||
| 20260506043618 | 64 | 358 | 4.3 | 5.2 | 0.00 | 0.00 | 0.00 | ||
| 20260506043118 | 65 | 49 | 3.5 | 5.2 | 0.00 | 0.00 | 0.00 | ||
| 20260506042618 | 65 | 283 | 4.3 | 7.0 | 0.00 | 0.00 | 0.00 | ||
| 20260506042118 | 65 | 24 | 4.3 | 7.0 | 0.00 | 0.00 | 0.00 | ||
| 20260506041619 | 65 | 344 | 3.5 | 3.5 | 0.00 | 0.00 | 0.00 | ||
| 20260506041119 | 65 | 338 | 6.1 | 7.8 | 0.00 | 0.00 | 0.00 | ||
| 20260506040618 | 66 | 349 | 5.2 | 8.7 | 0.00 | 0.00 | 0.00 | ||
| 20260506040119 | 66 | 1 | 4.3 | 5.2 | 0.00 | 0.00 | 0.00 | ||
| 20260506035619 | 66 | 345 | 7.0 | 8.7 | 0.00 | 0.00 | 0.00 | ||
| 20260506035119 | 67 | 349 | 6.1 | 10.4 | 0.00 | 0.00 | 0.00 | ||
| 20260506034619 | 67 | 335 | 6.1 | 6.1 | 0.00 | 0.00 | 0.00 | ||
| 20260506034119 | 67 | 6 | 4.3 | 4.3 | 0.00 | 0.00 | 0.00 | ||
| 20260506033619 | 68 | 359 | 4.3 | 7.0 | 0.00 | 0.00 | 0.00 | ||
| 20260506033119 | 68 | 359 | 2.6 | 4.3 | 0.00 | 0.00 | 0.00 | ||
| 20260506032619 | 68 | 334 | 2.6 | 2.6 | 0.00 | 0.00 | 0.00 | ||
| 20260506032119 | 69 | 356 | 7.0 | 7.8 | 0.00 | 0.00 | 0.00 | ||
| 20260506031619 | 69 | 335 | 6.1 | 6.1 | 0.00 | 0.00 | 0.00 | ||
| 20260506031119 | 69 | 359 | 6.1 | 6.1 | 0.00 | 0.00 | 0.00 | ||
| 20260506030619 | 69 | 325 | 6.1 | 7.8 | 0.00 | 0.00 | 0.00 | ||
| 20260506025619 | 69 | 61 | 6.1 | 9.6 | 0.00 | 0.00 | 0.00 | ||
| 20260506025119 | 70 | 351 | 1.7 | 0.9 | 0.00 | 0.00 | 0.00 | ||
| 20260506024619 | 70 | 141 | 4.3 | 4.3 | 0.00 | 0.00 | 0.00 | ||
| 20260506024119 | 70 | 313 | 7.0 | 11.3 | 0.00 | 0.00 | 0.00 | ||
| 20260506023119 | 70 | 359 | 4.3 | 2.6 | 0.00 | 0.00 | 0.00 | ||
| 20260506022619 | 70 | 339 | 3.5 | 8.7 | 0.00 | 0.00 | 0.00 | ||
| 20260506022119 | 70 | 320 | 5.2 | 13.0 | 0.00 | 0.00 | 0.00 | ||
| 20260506021119 | 71 | 359 | 3.5 | 7.8 | 0.00 | 0.00 | 0.00 | ||
| 20260506020619 | 71 | 311 | 3.5 | 7.0 | 0.00 | 0.00 | 0.00 | ||
| 20260506020119 | 71 | 352 | 6.1 | 8.7 | 0.00 | 0.00 | 0.00 | ||
| 20260506015619 | 71 | 349 | 4.3 | 7.0 | 0.00 | 0.00 | 0.00 | ||
| 20260506015119 | 72 | 322 | 3.5 | 8.7 | 0.00 | 0.00 | 0.00 | ||
| 20260506014619 | 72 | 352 | 6.1 | 6.1 | 0.00 | 0.00 | 0.00 | ||
| 20260506014120 | 72 | 4 | 4.3 | 2.6 | 0.00 | 0.00 | 0.00 | ||
| 20260506013619 | 72 | 359 | 5.2 | 7.0 | 0.00 | 0.00 | 0.00 | ||
| 20260506013119 | 73 | 348 | 4.3 | 6.1 | 0.00 | 0.00 | 0.00 | ||
| 20260506012619 | 73 | 23 | 4.3 | 7.0 | 0.00 | 0.00 | 0.00 | ||
| 20260506011620 | 73 | 348 | 3.5 | 5.2 | 0.00 | 0.00 | 0.00 | ||
| 20260506011120 | 74 | 62 | 0.0 | 0.0 | 0.00 | 0.00 | 0.00 | ||
| 20260506010620 | 74 | 341 | 6.1 | 10.4 | 0.00 | 0.00 | 0.00 | ||
| 20260506010119 | 75 | 325 | 4.3 | 4.3 | 0.00 | 0.00 | 0.00 | ||
| 20260506005619 | 76 | 37 | 4.3 | 1.7 | 0.00 | 0.00 | 0.00 | ||
| 20260506005119 | 76 | 18 | 2.6 | 4.3 | 0.00 | 0.00 | 0.00 | ||
| 20260506004619 | 76 | 32 | 2.6 | 1.7 | 0.00 | 0.00 | 0.00 | ||
| 20260506004119 | 77 | 356 | 3.5 | 4.3 | 0.00 | 0.00 | 0.00 | ||
| 20260506003119 | 78 | 155 | 5.2 | 4.3 | 0.00 | 0.00 | 0.00 | ||
| 20260506002620 | 78 | 359 | 3.5 | 3.5 | 0.00 | 0.00 | 0.00 | ||
| 20260506002119 | 79 | 7 | 4.3 | 3.5 | 0.00 | 0.00 | 0.00 | ||
| 20260506001119 | 79 | 6 | 4.3 | 7.0 | 0.00 | 0.00 | 0.00 | ||
| 20260506000119 | 80 | 348 | 3.5 | 3.5 | 0.00 | 0.00 | 0.00 | ||
| 20260505235619 | 81 | 320 | 3.5 | 6.1 | 0.00 | 0.00 | 0.00 | ||
| 20260505235119 | 81 | 321 | 6.1 | 7.0 | 0.00 | 0.00 | 0.00 | ||
| 20260505234620 | 82 | 18 | 6.1 | 5.2 | 0.00 | 0.00 | 0.00 | ||
| 20260505234120 | 82 | 353 | 6.1 | 5.2 | 0.00 | 0.00 | 0.00 | ||
| 20260505233619 | 84 | 10 | 5.2 | 7.8 | 0.00 | 0.00 | 0.00 | ||
| 20260505233119 | 84 | 356 | 5.2 | 5.2 | 0.00 | 0.00 | 0.00 | ||
| 20260505232620 | 85 | 346 | 4.3 | 6.1 | 0.00 | 0.00 | 0.00 | ||
| 20260505232119 | 86 | 349 | 4.3 | 3.5 | 0.00 | 0.00 | 0.00 | ||
| 20260505231620 | 86 | 28 | 7.0 | 11.3 | 0.00 | 0.00 | 0.00 | ||
| 20260505231119 | 87 | 306 | 6.1 | 8.7 | 0.00 | 0.00 | 0.00 | ||
| 20260505230120 | 89 | 325 | 4.3 | 5.2 | 0.00 | 0.00 | 0.00 | ||
| 20260505225619 | 90 | 322 | 2.6 | 8.7 | 0.00 | 0.00 | 0.00 | ||
| 20260505224620 | 92 | 282 | 2.6 | 2.6 | 0.00 | 0.00 | 0.00 | ||
| 20260505224120 | 92 | 39 | 5.2 | 5.2 | 0.00 | 0.00 | 0.00 | ||
| 20260505223120 | 92 | 327 | 4.3 | 7.0 | 0.00 | 0.00 | 0.00 | ||
| 20260505222620 | 92 | 359 | 5.2 | 6.1 | 0.00 | 0.00 | 0.00 | ||
| 20260505222120 | 94 | 336 | 2.6 | 2.6 | 0.00 | 0.00 | 0.00 | ||
| 20260505221620 | 95 | 17 | 4.3 | 4.3 | 0.00 | 0.00 | 0.00 | ||
| 20260505221120 | 96 | 279 | 3.5 | 6.1 | 0.00 | 0.00 | 0.00 | ||
| 20260505220620 | 96 | 358 | 2.6 | 3.5 | 0.00 | 0.00 | 0.00 | ||
| 20260505215620 | 96 | 272 | 1.7 | 6.1 | 0.00 | 0.00 | 0.00 | ||
| 20260505215120 | 97 | 296 | 0.9 | 1.7 | 0.00 | 0.00 | 0.00 | ||
| 20260505214120 | 96 | 244 | 2.6 | 3.5 | 0.00 | 0.00 | 0.00 | ||
| 20260505213620 | 96 | 242 | 0.0 | 6.1 | 0.00 | 0.00 | 0.00 | ||
| 20260505213121 | 96 | 201 | 2.6 | 5.2 | 0.00 | 0.00 | 0.00 | ||
| 20260505212620 | 95 | 186 | 0.0 | 0.0 | 0.00 | 0.00 | 0.00 | ||
| 20260505211620 | 95 | 331 | 1.7 | 2.6 | 0.00 | 0.00 | 0.00 | ||
| 20260505210620 | 95 | 215 | 3.5 | 3.5 | 0.00 | 0.00 | 0.00 | ||
| 20260505205621 | 95 | 255 | 4.3 | 3.5 | 0.00 | 0.00 | 0.00 | ||
| 20260505205120 | 94 | 272 | 4.3 | 6.1 | 0.00 | 0.00 | 0.00 | ||
| 20260505202121 | 92 | 245 | 5.2 | 7.8 | 0.00 | 0.00 | 0.00 | ||
| 20260505201121 | 94 | 197 | 5.2 | 10.4 | 0.00 | 0.00 | 0.00 | ||
| 20260505195120 | 94 | 215 | 4.3 | 3.5 | 0.00 | 0.00 | 0.00 | ||
| 20260505194621 | 94 | 170 | 4.3 | 7.0 | 0.00 | 0.00 | 0.00 | ||
| 20260505194121 | 94 | 245 | 6.1 | 7.0 | 0.00 | 0.00 | 0.00 | ||
| 20260505193621 | 94 | 217 | 3.5 | 7.8 | 0.00 | 0.00 | 0.00 | ||
| 20260505193120 | 94 | 232 | 2.6 | 3.5 | 0.00 | 0.00 | 0.00 | ||
| 20260505192620 | 94 | 206 | 4.3 | 8.7 | 0.00 | 0.00 | 0.00 | ||
| 20260505192121 | 93 | 229 | 5.2 | 7.0 | 0.00 | 0.00 | 0.00 | ||
| 20260505191621 | 92 | 260 | 4.3 | 5.2 | 0.00 | 0.00 | 0.00 | ||
| 20260505191120 | 92 | 180 | 5.2 | 7.0 | 0.00 | 0.00 | 0.00 | ||
| 20260505190620 | 91 | 246 | 6.1 | 5.2 | 0.00 | 0.00 | 0.00 | ||
| 20260505190121 | 92 | 293 | 2.6 | 5.2 | 0.00 | 0.00 | 0.00 | ||
| 20260505185620 | 91 | 239 | 5.2 | 7.8 | 0.00 | 0.00 | 0.00 | ||
| 20260505185120 | 91 | 173 | 3.5 | 6.1 | 0.00 | 0.00 | 0.00 | ||
| 20260505184621 | 91 | 306 | 7.0 | 7.8 | 0.00 | 0.00 | 0.00 | ||
| 20260505184120 | 90 | 260 | 4.3 | 5.2 | 0.00 | 0.00 | 0.00 | ||
| 20260505183620 | 91 | 276 | 6.1 | 6.1 | 0.00 | 0.00 | 0.00 | ||
| 20260505182621 | 88 | 229 | 5.2 | 6.1 | 0.00 | 0.00 | 0.00 | ||
| 20260505182121 | 87 | 224 | 4.3 | 7.0 | 0.00 | 0.00 | 0.00 | ||
| 20260505181121 | 87 | 255 | 6.1 | 9.6 | 0.00 | 0.00 | 0.00 | ||
| 20260505180621 | 87 | 266 | 4.3 | 6.1 | 0.00 | 0.00 | 0.00 | ||
| 20260505175121 | 87 | 263 | 7.0 | 5.2 | 0.00 | 0.00 | 0.00 | ||
| 20260505174621 | 86 | 183 | 4.3 | 7.8 | 0.00 | 0.00 | 0.00 | ||
| 20260505173621 | 86 | 221 | 4.3 | 9.6 | 0.00 | 0.00 | 0.00 | ||
| 20260505172621 | 85 | 227 | 7.0 | 7.8 | 0.00 | 0.00 | 0.00 | ||
| 20260505171621 | 86 | 242 | 5.2 | 7.0 | 0.00 | 0.00 | 0.00 | ||
| 20260505170621 | 85 | 166 | 5.2 | 7.0 | 0.00 | 0.00 | 0.00 | ||
| 20260505165622 | 83 | 244 | 5.2 | 4.3 | 0.00 | 0.00 | 0.00 | ||
| 20260505165121 | 85 | 228 | 5.2 | 9.6 | 0.00 | 0.00 | 0.00 | ||
| 20260505164621 | 86 | 228 | 6.1 | 8.7 | 0.00 | 0.00 | 0.00 | ||
| 20260505164121 | 84 | 218 | 4.3 | 4.3 | 0.00 | 0.00 | 0.00 | ||
| 20260505163621 | 85 | 213 | 5.2 | 12.2 | 0.00 | 0.00 | 0.00 | ||
| 20260505163121 | 84 | 245 | 4.3 | 7.8 | 0.00 | 0.00 | 0.00 | ||
| 20260505162621 | 83 | 232 | 5.2 | 5.2 | 0.00 | 0.00 | 0.00 | ||
| 20260505162121 | 83 | 245 | 5.2 | 13.0 | 0.00 | 0.00 | 0.00 | ||
| 20260505161621 | 83 | 235 | 4.3 | 9.6 | 0.00 | 0.00 | 0.00 | ||
| 20260505160621 | 80 | 177 | 7.0 | 6.1 | 0.00 | 0.00 | 0.00 | ||
| 20260505160121 | 81 | 217 | 5.2 | 7.0 | 0.00 | 0.00 | 0.00 | ||
| 20260505153122 | 79 | 237 | 3.5 | 5.2 | 0.00 | 0.00 | 0.00 | ||
| 20260505152621 | 79 | 222 | 6.1 | 7.0 | 0.00 | 0.00 | 0.00 | ||
| 20260505152122 | 78 | 232 | 5.2 | 5.2 | 0.00 | 0.00 | 0.00 | ||
| 20260505151621 | 78 | 255 | 4.3 | 8.7 | 0.00 | 0.00 | 0.00 | ||
| 20260505151121 | 77 | 297 | 7.0 | 4.3 | 0.00 | 0.00 | 0.00 | ||
| 20260505150621 | 77 | 232 | 5.2 | 7.8 | 0.00 | 0.00 | 0.00 | ||
| 20260505150121 | 77 | 235 | 5.2 | 8.7 | 0.00 | 0.00 | 0.00 | ||
| 20260505140621 | 75 | 231 | 7.8 | 12.2 | 0.00 | 0.00 | 0.00 | ||
| 20260505140121 | 75 | 249 | 3.5 | 2.6 | 0.00 | 0.00 | 0.00 | ||
| 20260505130122 | 71 | 8 | 3.5 | 2.6 | 0.00 | 0.00 | 0.00 | ||
| 20260505124622 | 71 | 256 | 4.3 | 4.3 | 0.00 | 0.00 | 0.00 | ||
| 20260505123622 | 71 | 234 | 2.6 | 2.6 | 0.00 | 0.00 | 0.00 | ||
| 20260505123122 | 70 | 221 | 2.6 | 6.1 | 0.00 | 0.00 | 0.00 | ||
| 20260505122622 | 70 | 153 | 3.5 | 7.0 | 0.00 | 0.00 | 0.00 | ||
| 20260505122122 | 71 | 242 | 3.5 | 9.6 | 0.00 | 0.00 | 0.00 | ||
| 20260505121622 | 70 | 211 | 3.5 | 7.8 | 0.00 | 0.00 | 0.00 | ||
| 20260505121122 | 70 | 190 | 6.1 | 4.3 | 0.00 | 0.00 | 0.00 | ||
| 20260505120622 | 70 | 241 | 4.3 | 3.5 | 0.00 | 0.00 | 0.00 | ||
| 20260505120122 | 70 | 227 | 5.2 | 7.0 | 0.00 | 0.00 | 0.00 | ||
| 20260505115622 | 70 | 260 | 4.3 | 8.7 | 0.00 | 0.00 | 0.00 | ||
| 20260505115122 | 70 | 238 | 4.3 | 4.3 | 0.00 | 0.00 | 0.00 | ||
| 20260505114622 | 70 | 214 | 4.3 | 7.8 | 0.00 | 0.00 | 0.00 | ||
| 20260505114122 | 70 | 260 | 3.5 | 7.0 | 0.00 | 0.00 | 0.00 | ||
| 20260505113622 | 70 | 207 | 3.5 | 2.6 | 0.00 | 0.00 | 0.00 | ||
| 20260505113122 | 70 | 210 | 5.2 | 3.5 | 0.00 | 0.00 | 0.00 | ||
| 20260505112622 | 70 | 245 | 3.5 | 3.5 | 0.00 | 0.00 | 0.00 | ||
| 20260505112122 | 70 | 229 | 7.0 | 8.7 | 0.00 | 0.00 | 0.00 | ||
| 20260505111622 | 70 | 251 | 3.5 | 6.1 | 0.00 | 0.00 | 0.00 | ||
| 20260505111122 | 70 | 217 | 3.5 | 7.8 | 0.00 | 0.00 | 0.00 | ||
| 20260505110122 | 70 | 215 | 4.3 | 6.1 | 0.00 | 0.00 | 0.00 | ||
| 20260505102122 | 71 | 221 | 4.3 | 3.5 | 0.00 | 0.00 | 0.00 | ||
| 20260505101622 | 71 | 225 | 5.2 | 10.4 | 0.00 | 0.00 | 0.00 | ||
| 20260505101123 | 71 | 267 | 4.3 | 7.0 | 0.00 | 0.00 | 0.00 | ||
| 20260505100622 | 71 | 234 | 4.3 | 7.8 | 0.00 | 0.00 | 0.00 | ||
| 20260505100122 | 71 | 204 | 5.2 | 7.8 | 0.00 | 0.00 | 0.00 | ||
| 20260505095622 | 71 | 238 | 4.3 | 5.2 | 0.00 | 0.00 | 0.00 | ||
| 20260505095123 | 71 | 227 | 2.6 | 4.3 | 0.00 | 0.00 | 0.00 | ||
| 20260505094622 | 71 | 177 | 5.2 | 3.5 | 0.00 | 0.00 | 0.00 | ||
| 20260505094123 | 71 | 160 | 6.1 | 7.0 | 0.00 | 0.00 | 0.00 | ||
| 20260505093623 | 71 | 263 | 4.3 | 7.8 | 0.00 | 0.00 | 0.00 | ||
| 20260505093122 | 71 | 229 | 4.3 | 7.8 | 0.00 | 0.00 | 0.00 | ||
| 20260505092123 | 71 | 266 | 4.3 | 7.0 | 0.00 | 0.00 | 0.00 | ||
| 20260505091622 | 71 | 213 | 1.7 | 0.0 | 0.00 | 0.00 | 0.00 | ||
| 20260505091122 | 71 | 218 | 5.2 | 7.0 | 0.00 | 0.00 | 0.00 | ||
| 20260505090622 | 71 | 229 | 3.5 | 3.5 | 0.00 | 0.00 | 0.00 | ||
| 20260505090123 | 71 | 182 | 5.2 | 2.6 | 0.00 | 0.00 | 0.00 | ||
| 20260505085622 | 71 | 245 | 6.1 | 7.0 | 0.00 | 0.00 | 0.00 | ||
| 20260505085122 | 71 | 239 | 3.5 | 12.2 | 0.00 | 0.00 | 0.00 | ||
| 20260505084623 | 71 | 217 | 4.3 | 7.0 | 0.00 | 0.00 | 0.00 | ||
| 20260505084122 | 72 | 245 | 6.1 | 10.4 | 0.00 | 0.00 | 0.00 | ||
| 20260505083622 | 72 | 148 | 5.2 | 8.7 | 0.00 | 0.00 | 0.00 | ||
| 20260505083122 | 72 | 200 | 5.2 | 11.3 | 0.00 | 0.00 | 0.00 | ||
| 20260505082623 | 72 | 197 | 4.3 | 10.4 | 0.00 | 0.00 | 0.00 | ||
| 20260505082122 | 72 | 203 | 8.7 | 10.4 | 0.00 | 0.00 | 0.00 | ||
| 20260505081623 | 72 | 203 | 6.1 | 8.7 | 0.00 | 0.00 | 0.00 | ||
| 20260505081123 | 72 | 186 | 7.0 | 7.0 | 0.00 | 0.00 | 0.00 | ||
| 20260505080623 | 72 | 200 | 6.1 | 8.7 | 0.00 | 0.00 | 0.00 | ||
| 20260505080123 | 72 | 224 | 6.1 | 8.7 | 0.00 | 0.00 | 0.00 | ||
| 20260505075623 | 72 | 218 | 6.1 | 5.2 | 0.00 | 0.00 | 0.00 | ||
| 20260505075123 | 73 | 359 | 5.2 | 4.3 | 0.00 | 0.00 | 0.00 | ||
| 20260505074623 | 73 | 259 | 7.8 | 11.3 | 0.00 | 0.00 | 0.00 | ||
| 20260505074123 | 73 | 241 | 5.2 | 5.2 | 0.00 | 0.00 | 0.00 | ||
| 20260505073623 | 73 | 207 | 7.0 | 8.7 | 0.00 | 0.00 | 0.00 | ||
| 20260505073123 | 73 | 225 | 5.2 | 6.1 | 0.00 | 0.00 | 0.00 | ||
| 20260505072623 | 73 | 221 | 5.2 | 5.2 | 0.00 | 0.00 | 0.00 | ||
| 20260505072123 | 73 | 182 | 5.2 | 4.3 | 0.00 | 0.00 | 0.00 | ||
| 20260505071623 | 73 | 275 | 4.3 | 6.1 | 0.00 | 0.00 | 0.00 | ||
| 20260505071209 | 73 | 204 | 5.2 | 4.3 | 0.00 | 0.00 | 0.00 | ||
| 20260505071123 | 73 | 204 | 5.2 | 4.3 | 0.00 | 0.00 | 0.00 | ||
| 20260505070623 | 73 | 270 | 4.3 | 5.2 | 0.00 | 0.00 | 0.00 | ||
| 20260505070123 | 74 | 224 | 5.2 | 6.1 | 0.00 | 0.00 | 0.00 | ||
| 20260505065623 | 74 | 210 | 4.3 | 5.2 | 0.00 | 0.00 | 0.00 | ||
| 20260505065123 | 73 | 153 | 5.2 | 4.3 | 0.00 | 0.00 | 0.00 | ||
| 20260505064623 | 74 | 199 | 3.5 | 5.2 | 0.00 | 0.00 | 0.00 | ||
| 20260505064123 | 74 | 213 | 4.3 | 9.6 | 0.00 | 0.00 | 0.00 | ||
| 20260505063623 | 74 | 203 | 7.0 | 7.0 | 0.00 | 0.00 | 0.00 | ||
| 20260505063123 | 74 | 231 | 4.3 | 6.1 | 0.00 | 0.00 | 0.00 | ||
| 20260505062623 | 74 | 207 | 6.1 | 5.2 | 0.00 | 0.00 | 0.00 | ||
| 20260505062123 | 74 | 234 | 6.1 | 9.6 | 0.00 | 0.00 | 0.00 | ||
| 20260505061623 | 74 | 204 | 7.0 | 9.6 | 0.00 | 0.00 | 0.00 | ||
| 20260505061123 | 74 | 228 | 4.3 | 6.1 | 0.00 | 0.00 | 0.00 | ||
| 20260505060623 | 74 | 211 | 4.3 | 9.6 | 0.00 | 0.00 | 0.00 | ||
| 20260505055623 | 74 | 229 | 3.5 | 2.6 | 0.00 | 0.00 | 0.00 |